Regional Weather Roundup
Issued by NWS

Home | Current Version | Previous Version | Text Only | Print | Product List | Glossary On
Versions: 1 2 3 4 5 6 7 8 9 10 11 12 13 14 15 16 17 18 19 20 21 22 23 24 25 26 27 28 29 30 31 32 33 34 35 36 37 38 39 40 41 42 43 44 45 46 47 48 49 50
000
ASUS45 KBOU 011707
RWRCO

WEATHER ROUNDUP FOR COLORADO
NATIONAL WEATHER SERVICE DENVER/BOULDER CO
1100 AM MDT FRI AUG 01 2014

NOTE: "FAIR" INDICATES FEW OR NO CLOUDS BELOW 12000 FEET WITH NO
SIGNIFICANT WEATHER AND/OR OBSTRUCTIONS TO VISIBILITY.

COZ001>005-013-030-031-011800-
...NORTHWEST COLORADO...

CITY           SKY/WX    TMP DP  RH WIND       PRES   REMARKS
CRAIG          MOSUNNY   65  51  60 NW7       30.29S
HAYDEN         MOSUNNY   70  46  43 W6        30.32R
MEEKER         LGT RAIN  67  49  52 VRB5      30.32F
MOUNT WERNER   NOT AVBL
STEAMBOAT SPGS MOSUNNY   69  47  45 N3        30.33S
WALDEN         SUNNY     61  41  48 W5        30.42S
$$

COZ006>008-011-011800-
...WEST CENTRAL VALLEYS...

CITY           SKY/WX    TMP DP  RH WIND       PRES   REMARKS
GRAND JUNCTION PTSUNNY   77  51  40 VRB3      30.21S
MONTROSE       PTSUNNY   75  52  44 VRB5      30.28F
EAGLE          PTSUNNY   64  54  68 VRB7      30.38F
RIFLE          CLOUDY    72  51  47 NE6       30.27R
DELTA          PTSUNNY   78  51  38 CALM      30.23F
NUCLA          PTSUNNY   73  50  43 CALM      30.31S
$$

COZ017>023-064>068-011800-
...SOUTHWEST COLORADO...

CITY           SKY/WX    TMP DP  RH WIND       PRES   REMARKS
DURANGO        SUNNY     69  50  50 S5        30.34S
CORTEZ         MOSUNNY   76  51  41 VRB5      30.27F
PAGOSA SPRINGS PTSUNNY   61  54  78 CALM      30.42S
TELLURIDE      NOT AVBL
WOLF CREEK PAS NOT AVBL
$$

COZ009-010-012-014-032>034-037-058>063-011800-
...CENTRAL COLORADO...

CITY           SKY/WX    TMP DP  RH WIND       PRES   REMARKS
ASPEN          PTSUNNY   62  53  72 N5        30.40S
BUENA VISTA    CLOUDY    58  48  69 CALM      30.44S
COPPER MTN     CLOUDY    45  37  76 W13       30.67R VSB 1/2
BERTHOUD PASS  CLOUDY    39  37  93 E13       30.71S FOG
COTTONWOOD PAS CLOUDY    54  50  87 E3        30.54S
GUNNISON       CLOUDY    55  48  76 NW5       30.45S
KREMMLING      PTSUNNY   61  43  51 CALM      30.41S
LEADVILLE      CLOUDY    49  46  90 CALM        N/A
MONARCH PASS   LGT RAIN  41  41 100 CALM      30.76S
SALIDA         CLOUDY    62  52  69 CALM      30.48S
SUNLIGHT       CLOUDY    55  46  71 CALM      30.61R
WILKERSON PASS CLOUDY    45  43  93 CALM      30.66R
$$

COZ069>075-011800-
...SAN LUIS VALLEY/SANGRE DE CRISTO MOUNTAINS...

CITY           SKY/WX    TMP DP  RH WIND       PRES   REMARKS
ALAMOSA        CLOUDY    61  52  72 CALM      30.40S
LA VETA PASS   FOG       50  48  93 E3        30.56S VSB<1/4
SAGUACHE       CLOUDY    57  52  82 CALM      30.44S
$$

COZ035-036-038>040-011800-
...NORTHERN COLORADO FRONT RANGE...

CITY           SKY/WX    TMP DP  RH WIND       PRES   REMARKS
DENVER INTL AP MOSUNNY   74  47  38 S3        30.29S
DMNS CITY PARK   N/A     77  51  40 N2        30.28S
AURORA         PTSUNNY   74  44  35 E6        30.31S
FRONT RANGE AP PTSUNNY   75  45  33 SE12      30.30S
ERIE MUNI ARPT MOSUNNY   75  48  39 CALM      30.27F
BOULDER MUN AP MOSUNNY   73  50  43 SE5       30.28S
CENTENNIAL     PTSUNNY   72  41  32 E8        30.31S
BROOMFIELD     PTSUNNY   73  46  38 VRB5      30.31F
FORT COLLINS   SUNNY     75  50  41 S9        30.27F
LONGMONT       SUNNY     79  51  37 E3        30.28F
$$

COZ041-046-047-076>085-087-088-011800-
...PIKES PEAK/PALMER DIVIDE AND SOUTHERN FOOTHILLS...

CITY           SKY/WX    TMP DP  RH WIND       PRES   REMARKS
COLO. SPRINGS  PTSUNNY   69  51  52 S8        30.36R
A. F. ACADEMY  MOSUNNY   68  51  54 VRB6      30.36S
ELLICOTT       MOSUNNY   68  50  52 SE3       30.34S
FALCON         MOSUNNY   68  47  45 S7        30.40R
FORT CARSON    CLOUDY    67  54  63 E1        30.34R
LIMON          SUNNY     75  43  31 SE14      30.30S
MONUMENT HILL  SUNNY     68  36  30 E8        30.38S
TRINIDAD       MOSUNNY   70  54  56 CALM      30.31F
$$

COZ042>045-048>051-090-091-011800-
...NORTHEAST COLORADO...

CITY           SKY/WX    TMP DP  RH WIND       PRES   REMARKS
GREELEY ARPT   SUNNY     79  54  41 S3        30.27S
AKRON          SUNNY     78  47  33 E5        30.26S
BURLINGTON     MOSUNNY   81  44  27 CALM      30.24R
WRAY             N/A     84  48  28 S3        30.20S
STERLING       SUNNY     81  57  44 S5        30.21F
HOLYOKE        SUNNY     84  52  32 SE3       30.20F
FORT MORGAN    SUNNY     78  49  36 S5        30.26S
$$

COZ086-089-092>099-011800-
...SOUTHEAST COLORADO...

CITY           SKY/WX    TMP DP  RH WIND       PRES   REMARKS
PUEBLO         PTSUNNY   73  56  54 VRB5      30.27S
LA JUNTA       MOSUNNY   77  54  44 CALM      30.24F
LAMAR          MOSUNNY   78  55  44 NW3       30.21S
SPRINGFIELD      N/A     76  52  43 S8        30.25S
$$


USA.gov is the U.S. government's official web portal to all federal, state and local government web resources and services.